Regional Weather Roundup
Issued by NWS

Home | Current Version | Previous Version | Graphics & Text | Print | Product List | Glossary On
Versions: 1 2 3 4 5 6 7 8 9 10 11 12 13 14 15 16 17 18 19 20 21 22 23 24 25 26 27 28 29 30 31 32 33 34 35 36 37 38 39 40 41 42 43 44 45 46 47 48 49 50
000
ASUS43 KTOP 020008
RWRKS

WEATHER ROUNDUP FOR KANSAS
NATIONAL WEATHER SERVICE GOODLAND KS
700 PM CDT MON SEP 01 2014

NOTE:  "FAIR" INDICATES FEW OR NO CLOUDS BELOW 12,000 FEET WITH NO
SIGNIFICANT WEATHER AND/OR OBSTRUCTIONS TO VISIBILITY.

KSZ001>006-013>018-027>032-041>047-020100-
NORTHWEST KANSAS

CITY           SKY/WX    TMP DP  RH WIND       PRES   REMARKS
GOODLAND       SUNNY     79  46  31 SE12      29.94S
6HR MIN TEMP:  73; 6HR MAX TEMP:  81;

HAYS           SUNNY     81  61  50 E10       29.90S
HILL CITY      SUNNY     79  56  45 E9        29.91F
6HR MIN TEMP:  75; 6HR MAX TEMP:  82;

RUSSELL        MOSUNNY   78  64  61 E12       29.88F
6HR MIN TEMP:  75; 6HR MAX TEMP:  81;

$$

KSZ061>065-074>080-084>089-020100-
SOUTHWEST KANSAS

CITY           SKY/WX    TMP DP  RH WIND       PRES   REMARKS
DODGE CITY     SUNNY     79  63  57 NE10      29.91R
6HR MIN TEMP:  73; 6HR MAX TEMP:  82;

ELKHART          N/A     86  57  37 E15         N/A
GARDEN CITY    SUNNY     81  57  43 E13       29.91S
6HR MIN TEMP:  78; 6HR MAX TEMP:  84;

GREAT BEND     MOSUNNY   75  64  69 E12       29.89F
LIBERAL        SUNNY     82  63  51 E9        29.92S
PRATT          SUNNY     77  64  65 NE16      29.88F
$$

KSZ066>073-081>083-090>101-020100-
SOUTHEAST KANSAS

CITY           SKY/WX    TMP DP  RH WIND       PRES   REMARKS
CHANUTE        MOCLDY    81  71  71 E6        29.82F
6HR MIN TEMP:  77; 6HR MAX TEMP:  84;

COFFEYVILLE    PTCLDY    80  78  94 E9        29.78F
6HR MIN TEMP:  77; 6HR MAX TEMP:  86; 6HR PCP:  0.17;

HUTCHINSON     CLOUDY    77  67  71 NE12      29.85F
6HR MIN TEMP:  77; 6HR MAX TEMP:  81;

MEDICINE LODGE   N/A     83  69  62 NE21G28   29.79F
NEWTON         PTSUNNY   75  64  69 NE13      29.87F
WICHITA INTL   PTSUNNY   82  69  64 N17       29.78F
6HR MIN TEMP:  81; 6HR MAX TEMP:  89;

WICHITA JABRA  MOSUNNY   80  70  71 N17       29.79F
6HR MIN TEMP:  78; 6HR MAX TEMP:  86;

WICHITA MCCONL MOSUNNY   80  76  89 N13       29.79F
WINFIELD       TSTM      78  75  90 N30G36    29.77S FOG
6HR MIN TEMP:  79; 6HR MAX TEMP:  91; 6HR PCP:  0.11;

$$

KSZ007>012-019>026-033>040-048>060-102>105-020100-
NORTHEAST KANSAS

CITY           SKY/WX    TMP DP  RH WIND       PRES   REMARKS
CONCORDIA      SUNNY     76  61  59 N6        29.90S
6HR MIN TEMP:  73; 6HR MAX TEMP:  82;

EMPORIA        MOCLDY    75  69  81 NE7       29.85F
6HR MIN TEMP:  75; 6HR MAX TEMP:  78;

LAWRENCE       CLOUDY   N/A N/A N/A CALM      29.86F
MANHATTAN      PTSUNNY   79  67  66 NE3       29.85F
6HR MIN TEMP:  77; 6HR MAX TEMP:  80;

OLATHE IND     CLOUDY    76  68  76 S3        29.87F
6HR MIN TEMP:  76; 6HR MAX TEMP:  81;

OLATHE EXE     CLOUDY    76  67  73 SW3       29.87F
6HR MIN TEMP:  75; 6HR MAX TEMP:  79;

SALINA         PTSUNNY   78  66  66 E7        29.87F
6HR MIN TEMP:  75; 6HR MAX TEMP:  81;

TOPEKA BILLARD CLOUDY    79  71  76 CALM      29.87F
6HR MIN TEMP:  78; 6HR MAX TEMP:  81;

TOPEKA FORBES  CLOUDY    77  68  73 CALM      29.87F
6HR MIN TEMP:  77; 6HR MAX TEMP:  79;

$$



USA.gov is the U.S. government's official web portal to all federal, state and local government web resources and services.